Tracking 19247 objects as of 22-Sep-2018
HD Live streaming from Space Station
objects crossing your sky now

FENGYUN 1C DEB

Track FENGYUN 1C DEB now!
10-day predictions


NORAD ID: 36173
Int'l Code: 1999-025DSW
Perigee: 716.3 km
Apogee: 940.1 km
Inclination: 98.3 °
Period: 101.3 minutes
Semi major axis: 7199 km
RCS: 0.0079 m2 (small)
Launch date: May 10, 1999
Source: People's Republic of China (PRC)
Launch site: Taiyaun Space Center, China (TSC)

Note: This is SATELLITE DEBRIS
aabbcc
Your satellite tracking list
Your tracking list is empty




NASA's NSSDC Master Catalog

Two Line Element Set (TLE):
1 36173U 99025DSW 18263.49147359 +.00000067 +00000-0 +43951-4 0  9996
2 36173 098.2779 006.2788 0155428 015.3654 345.2167 14.21267481215602
Source of the keplerian elements: AFSPC